Погода Оловянная

Погода Оловянная : погода сейчас, прогноз погоды и архив. Всё, что Вы хотите узнать о погоде Оловянная!

Хотите узнать прогноз погоды Оловянная? Тогда Вам сюда: Погода Оловянная

Поиск расширенной информации на нашем сайте:

Другие новости

Новости СМИ2

Главная страница сайта

Новости сайта

03.07.2017

Напоминаем, что на нашем специализированном сайте Метеоцентр.Азия вы можете получить высокодетализированные автоматические прогнозы погоды по пунктам России, СНГ и мира в авиационном формате (включающие направление и скорость ветра, видимость, явления погоды, количество и форму облачности, нижнюю и верхнюю границу облачности).

Рекомендуем: Общение на форуме

Погода Оловянная - сегодня

Время (UTC), дата Ветер
(°,м/с) 
Видим.   Явления Облачность Т
(°С)
Тd
(°С)
f(%) Тe
(°С)
Pmin
(гПа)
dP
(гПа)
Po
(мм)
O2
(г/м3)
Тmin Tmax R s Состояние
почвы
03 18.02.18 310 (СЗ) 20000 м    3/0 верхняя 
[Ci fib]
-14.8 -22.3 53 -15  1030.9  0.6  711  304           
06 18.02.18 320 (СЗ) 20000 м    ясно 
-12.6 -20.7 51 -18  1028.6  -1.5  710  301           
09 18.02.18 260 (З) 2{10}  20000 м    3/0 верхняя 
[Ci fib]
-12.8 -20.9 51 -15  1027.8  -0.7  709  301           
15 18.02.18 280 (З) 20000 м    ясно 
-18 -23.1 64 -21  1029.9  -0.3  709  308           
18 18.02.18 260 (З) 20000 м    8/8 2000 м средняя 
[Ac lent]
-18.3 -22.7 68 -22  1029.8  -0.3  709  308           
21 18.02.18 310 (СЗ) 20000 м    8/8 2000 м средняя 
[Ac lent]
-17.6 -21.8 70 -23  1028.5  -0.9  708  307           
03 19.02.18 300 (СЗ) 20000 м    ясно 
-15 -20.1 65 -20  1029  0.9  709  304           
06 19.02.18 330 (СЗ) 20000 м    3/0 верхняя 
[Cc]
-12.7 -20.4 52 -18  1027.1  -1  709  301           
09 19.02.18 300 (СЗ) 20000 м    3/0 верхняя 
[Cs]
-13.4 -21.3 51 -17  1027.2  0.1  709  302           
12 19.02.18 270 (З) 20000 м    ясно 
-18.1 -24 60 -22  1029.4  0.1  709  307    -12.2       
15 19.02.18 320 (СЗ) 20000 м    ясно 
-20.4 -25.6 63 -21  1030.2  0.1  709  310           
18 19.02.18 250 (З) 20000 м    ясно 
-19.7 -24.4 66 -25  1029.5  -0.5  709  309           
21 19.02.18 270 (З) 20000 м    ясно 
-21.6 -25.3 72 -25  1029.6  -0.5  708  312           
03 20.02.18 300 (СЗ) 20000 м    ясно 
-15 -20.9 61 -20  1028.3  0.4  709  304           
06 20.02.18 310 (СЗ) 20000 м    3/0 верхняя 
[Ci fib]
-12.3 -20.3 51 -16  1025.6  -1.7  708  300           
09 20.02.18 260 (З) 20000 м    4/0 верхняя 
[Ci fib]
-11.9 -20.4 49 -12  1024.6  -0.7  707  299           
12 20.02.18 260 (З) 20000 м    ясно 
-16.8 -21.3 68 -17  1025.5  -0.7  707  305    -11.4       
15 20.02.18 180 (Ю) 20000 м    ясно 
-18.5 -21.7 76 -19  1024.3  -1.7  705  306           
18 20.02.18 150 (ЮВ) н/о    н/о 
-18.5 -21.8 75 -19  1022.5  -1.7  704  306           
21 20.02.18 280 (З) 20000 м    10/10 2000 м 
[As trans]
-15.7 -19.5 73 -16  1019.9  -1.5  703  302           
03 21.02.18 360 (С) 20000 м    10/10 2000 м 
[Ns]
-12.1 -16 73 -17  1017.6  0.1  702  297           
09 21.02.18 300 (СЗ) 20000 м  {снег}  4/4 2000 м средняя 
[Ac lent]
-12.4 -19.2 57 -18  1017.5  0.4  702  298           
15 21.02.18 тихо ()   20000 м    3/3 2000 м средняя 
[Ac lent]
-22.1 -24.5 81 -22  1022  0.9  703  310           
18 21.02.18 320 (СЗ) 20000 м    6/6 2000 м средняя 
[Ac lent]
-21.5 -25.7 69 -24  1021.5  -0.3  703  309           
21 21.02.18 360 (С) 20000 м    4/4 2000 м средняя 
[Ac lent]
-26.8 -29.3 79 -27  1023  -0.3  702  316           
Время (UTC), дата Ветер
(°,м/с) 
Видим.   Явления Облачность Т
(°С)
Тd
(°С)
f(%) Тe
(°С)
Pmin
(гПа)
dP
(гПа)
Po
(мм)
O2
(г/м3)
Тmin Tmax R s Состояние
почвы

Для получения пояснительной информации подведите курсор к названию столбца.

ПОГОДА Оловянная - архив

Всё, что Вы хотите узнать о погоде Оловянная - удобно и подробно!

Выберите нужную дату (начиная с 1 января 2015* года) и нажмите кнопку "Найти".
Будут отображены архивные сводки погоды по пункту Оловянная, начиная с указанной даты.


Отображать данные в формате CSV (для использования в таблицах Excel)


Внимание! Наш архив погоды предназначен исключительно для личного некоммерческого использования в познавательных целях. Если Вам необходимы официальные справки о состоянии погоды (для производственных, юридических, коммерческих и т.п. целей), обращайтесь в органы Росгидромета.

*Примечание: данная дата относится к архиву по метеостанциям СССР (Россия, СНГ, Балтия).
Архив по метеостанциям Зарубежной Европы и Азии (кроме Китая) хранится 10 дней, по другим регионам земного шара (Китай, Африка, Америка, Австралия, Океания) - 1 день.

Оловянная - район местоположения метеостанции


Название, широта, долгота, высота метеостанции:
Оловянная 50.9°ш. 115.6°д. 640 м над ур. моря [Российская Федерация]

Дополнительная информация

В oтличие oт бoльшинства пoгoдных сайтoв мы публикуем пoдрoбную метеoинфoрмацию в детальнoм прoфессиoнальнoм фoрмате.

Характеристики температуры и влажнoсти вoздуха измеряются на высoте 2 м в тени вдали oт зданий и деревьев.
Скoрoсть ветра измеряется на высoте 10 м (на урoвне рoста челoвека скoрoсть ветра ниже в 1.5-2 раза). Если метеoстанция нахoдится в гoрoде или в лесу, тo скoрoсть ветра занижена на 2-4 м/с пo сравнению с oткрытым местoм. Скoрoсть ветра над акватoриями крупных рек и oзёр, а также на вершинах хoлмoв на 2-5 м/с выше, чем в oбычных услoвиях.
Атмoсфернoе давление в разных тoчках местнoсти мoжет значительнo oтличаться oт давления на метеoстанции, в зависимoсти oт услoвий рельефа (при пoдъёме на 10 м давление пoнижается примернo на 1 мм рт.ст.).